Dallas/Ft Worth, TX

9:12 AM CST on November 22, 2019 (GMT -0600)
Dallas-Fort Worth International

Weather History for KDFW - September, 2019

Change the Weather History Date:

Wednesday, September 4, 2019

  Actual Average Record
Temperature  
Mean Temperature 87 °F 82 °F  
Max Temperature 97 °F 92 °F 111 °F (2000)
Min Temperature 77 °F 72 °F 55 °F (1974)
Degree Days  
Heating Degree Days 0 0  
Month to date heating degree days 0 0  
Since 1 July heating degree days 0 0  
Cooling Degree Days 22 17  
Month to date cooling degree days 83 70  
Year to date cooling degree days 2285 2252  
Growing Degree Days 37 (Base 50)    
Moisture  
Dew Point 65 °F    
Average Humidity 50    
Maximum Humidity 74    
Minimum Humidity 29    
Precipitation  
Precipitation 0.00 in 0.09 in 4.54 in (1943)
Month to date precipitation 0.00 0.38  
Year to date precipitation 27.13 24.49  
Sea Level Pressure  
Sea Level Pressure 30.01 in    
Wind  
Wind Speed 3 mph ()    
Max Wind Speed 14 mph    
Max Gust Speed 20 mph    
Visibility 10.0 miles    
Events      
T = Trace of Precipitation, MM = Missing Value Source: Averaged Metar Reports

Daily Weather History Graph

Daily Weather History Graph

Search for Another Location

Airport or City:

Astronomy

Sep. 04, 2019 Rise Set
Actual Time 7:04 AM CDT 7:49 PM CDT
Civil Twilight 6:39 AM CDT 8:14 PM CDT
Nautical Twilight 6:09 AM CDT 8:43 PM CDT
Astronomical Twilight 5:39 AM CDT 9:14 PM CDT
Moon 12:48 PM CDT (9/4) 11:44 PM CDT (9/4)
Length of Visible Light 13h 34m
Length of Day
12h 44m
Waxing Crescent, 35% of the Moon is Illuminated
Sep 4
Waxing Crescent
Sep 5
First Quarter
Sep 13
Full
Sep 21
Last Quarter
Sep 28
New

Hourly Weather History & Observations

Time (CDT) Temp. Heat Index Dew Point Humidity Pressure Visibility Wind Dir Wind Speed Gust Speed Precip Events Conditions
12:53 AM 82.9 °F 85.4 °F 66.9 °F 58% 29.96 in 10.0 mi East 4.6 mph - N/A   Partly Cloudy
1:53 AM 81.0 °F 83.3 °F 66.9 °F 62% 29.96 in 10.0 mi Calm Calm - N/A   Partly Cloudy
2:53 AM 79.0 °F - 66.9 °F 66% 29.97 in 10.0 mi NE 3.5 mph - N/A   Clear
3:53 AM 80.1 °F 82.7 °F 68.0 °F 67% 29.97 in 10.0 mi Calm Calm - N/A   Clear
4:53 AM 78.1 °F - 68.0 °F 71% 29.98 in 10.0 mi East 3.5 mph - N/A   Clear
5:53 AM 78.1 °F - 68.0 °F 71% 29.99 in 10.0 mi Calm Calm - N/A   Clear
6:53 AM 78.1 °F - 68.0 °F 71% 30.01 in 10.0 mi Calm Calm - N/A   Partly Cloudy
7:53 AM 79.0 °F - 69.1 °F 72% 30.04 in 10.0 mi Calm Calm - N/A   Partly Cloudy
8:53 AM 84.0 °F 87.8 °F 69.1 °F 61% 30.05 in 10.0 mi Calm Calm - N/A   Partly Cloudy
9:53 AM 87.1 °F 89.9 °F 66.9 °F 51% 30.06 in 10.0 mi Calm Calm - N/A   Partly Cloudy
10:53 AM 91.0 °F 94.3 °F 66.9 °F 45% 30.06 in 10.0 mi ESE 6.9 mph - N/A   Partly Cloudy
11:53 AM 91.9 °F 94.1 °F 64.9 °F 41% 30.07 in 10.0 mi Variable 3.5 mph - N/A   Scattered Clouds
12:53 PM 93.0 °F 94.2 °F 63.0 °F 37% 30.05 in 10.0 mi ESE 9.2 mph - N/A   Scattered Clouds
1:53 PM 93.9 °F 95.2 °F 63.0 °F 36% 30.03 in 10.0 mi Variable 3.5 mph - N/A   Scattered Clouds
2:53 PM 95.0 °F 94.4 °F 59.0 °F 30% 30.01 in 10.0 mi East 8.1 mph - N/A   Scattered Clouds
3:53 PM 97.0 °F 96.9 °F 60.1 °F 29% 29.99 in 10.0 mi ESE 10.4 mph 19.6 mph N/A   Scattered Clouds
4:53 PM 96.1 °F 95.6 °F 59.0 °F 29% 29.98 in 10.0 mi East 12.7 mph - N/A   Partly Cloudy
5:53 PM 95.0 °F 94.8 °F 60.1 °F 31% 29.97 in 10.0 mi East 11.5 mph - N/A   Scattered Clouds
6:53 PM 93.0 °F 93.0 °F 61.0 °F 34% 29.99 in 10.0 mi SE 9.2 mph - N/A   Partly Cloudy
7:53 PM 88.0 °F 88.4 °F 62.1 °F 42% 29.99 in 10.0 mi ESE 6.9 mph - N/A   Partly Cloudy
8:53 PM 84.9 °F 85.4 °F 62.1 °F 46% 30.01 in 10.0 mi ESE 5.8 mph - N/A   Partly Cloudy
9:53 PM 84.9 °F 85.4 °F 62.1 °F 46% 30.02 in 10.0 mi Calm Calm - N/A   Partly Cloudy
10:53 PM 86.0 °F 86.8 °F 63.0 °F 46% 30.03 in 10.0 mi Calm Calm - N/A   Partly Cloudy
11:53 PM 82.9 °F 84.4 °F 64.0 °F 53% 30.03 in 10.0 mi East 3.5 mph - N/A   Partly Cloudy